Location: Knowlton
(51.2333°N, 1.2667°E)
Time: 03:48:25
(UTC+00:00)

Cosmos 1633 Rocket - Pass Details

Date: 18 April 2021
Orbit: 606 x 624 km, 82.5° (Epoch: 06 May)

Event Time Altitude Azimuth Distance (km) Brightness Sun altitude
Rises 22:28:44 0° 357° (N) 2,880 7.6 -24.9°
Reaches altitude 10° 22:31:14 10° 9° (N) 1,971 6.4 -25.1°
Enters shadow 22:34:40 27° 61° (ENE) 1,173 4.5 -25.3°
